CP2829 SABE-SAZM

Flight info

Callsign CP2829
Flight time 0h 42m
Altitude 33000
Route PTA8 GBE UW29 VOTRA VOTRA1Q
Aircraft C700/M-SBDGHM1RWXY/LB2

Departure

Time 2026-05-07 00:31
Airport Aeroparque Jorge Newbery (SABE)

Arrival

Time 2026-05-07 01:13
Airport Ástor Piazzola International Airport (SAZM)
Time Latitude Longitude Altitude Speed Heading
2026-05-07 00:03 -34.56298 -58.41218 21 ft 0 kts 214°
2026-05-07 00:14 -34.56297 -58.41218 -6 ft 0 kts 214°
2026-05-07 00:27 -34.56316 -58.41233 22 ft 5 kts 211°
2026-05-07 00:27 -34.56349 -58.41201 21 ft 9 kts 122°
2026-05-07 00:27 -34.56394 -58.41118 22 ft 14 kts 128°
2026-05-07 00:27 -34.56452 -58.41013 21 ft 16 kts 122°
2026-05-07 00:28 -34.56511 -58.40910 21 ft 15 kts 125°
2026-05-07 00:28 -34.56511 -58.40843 23 ft 8 kts 61°
2026-05-07 00:28 -34.56479 -58.40772 21 ft 11 kts 65°
2026-05-07 00:28 -34.56459 -58.40722 23 ft 0 kts 70°
2026-05-07 00:30 -34.56458 -58.40717 22 ft 4 kts 69°
2026-05-07 00:30 -34.56420 -58.40677 19 ft 11 kts 16°
2026-05-07 00:30 -34.56386 -58.40736 19 ft 10 kts 299°
2026-05-07 00:30 -34.56355 -58.40810 20 ft 10 kts 310°
2026-05-07 00:31 -34.56244 -58.41001 22 ft 64 kts 304°
2026-05-07 00:31 -34.55831 -58.41741 24 ft 145 kts 307°
2026-05-07 00:31 -34.55117 -58.42967 170 ft 211 kts 305°
2026-05-07 00:31 -34.54219 -58.44579 633 ft 227 kts 306°
2026-05-07 00:32 -34.53388 -58.46229 646 ft 220 kts 301°
2026-05-07 00:32 -34.52551 -58.47583 1300 ft 184 kts 331°
2026-05-07 00:32 -34.51419 -58.47565 2088 ft 199 kts 29°
2026-05-07 00:32 -34.50889 -58.45588 2100 ft 261 kts 75°
2026-05-07 00:33 -34.50631 -58.43564 2912 ft 248 kts 69°
2026-05-07 00:33 -34.50307 -58.41379 3720 ft 283 kts 70°
2026-05-07 00:33 -34.50101 -58.38810 4563 ft 329 kts 83°
2026-05-07 00:33 -34.50369 -58.35830 5006 ft 378 kts 98°
2026-05-07 00:34 -34.51217 -58.32816 5015 ft 377 kts 109°
2026-05-07 00:34 -34.52241 -58.29914 5012 ft 372 kts 109°
2026-05-07 00:34 -34.53271 -58.27047 5000 ft 371 kts 116°
2026-05-07 00:34 -34.54978 -58.24736 4984 ft 369 kts 145°
2026-05-07 00:35 -34.57291 -58.23541 5034 ft 355 kts 175°
2026-05-07 00:35 -34.59724 -58.23676 5286 ft 354 kts 197°
2026-05-07 00:35 -34.62133 -58.24297 5583 ft 354 kts 199°
2026-05-07 00:35 -34.64549 -58.24908 5893 ft 356 kts 197°
2026-05-07 00:36 -34.67017 -58.25353 6201 ft 359 kts 194°
2026-05-07 00:36 -34.69488 -58.25763 6489 ft 358 kts 195°
2026-05-07 00:36 -34.71905 -58.26245 6773 ft 357 kts 197°
2026-05-07 00:36 -34.74356 -58.26748 7065 ft 357 kts 196°
2026-05-07 00:37 -34.76815 -58.27216 7302 ft 358 kts 195°
2026-05-07 00:37 -34.79277 -58.27683 7588 ft 358 kts 196°
2026-05-07 00:37 -34.81743 -58.28165 7873 ft 358 kts 196°
2026-05-07 00:37 -34.84204 -58.28644 8160 ft 358 kts 195°
2026-05-07 00:38 -34.86667 -58.29122 8441 ft 358 kts 195°
2026-05-07 00:38 -34.89148 -58.29604 8802 ft 363 kts 195°
2026-05-07 00:38 -34.91550 -58.30061 10587 ft 339 kts 196°
2026-05-07 00:38 -34.93869 -58.30507 11639 ft 341 kts 196°
2026-05-07 00:39 -34.96237 -58.30987 11636 ft 351 kts 196°
2026-05-07 00:39 -34.98669 -58.31462 12005 ft 353 kts 195°
2026-05-07 00:39 -35.01098 -58.31926 12395 ft 356 kts 196°
2026-05-07 00:39 -35.03551 -58.32404 13050 ft 357 kts 196°
2026-05-07 00:40 -35.06010 -58.32883 13619 ft 361 kts 196°
2026-05-07 00:40 -35.08503 -58.33372 14142 ft 363 kts 196°
2026-05-07 00:40 -35.11017 -58.33863 14967 ft 366 kts 196°
2026-05-07 00:40 -35.13532 -58.34350 16418 ft 369 kts 197°
2026-05-07 00:41 -35.16071 -58.34853 17581 ft 378 kts 197°
2026-05-07 00:41 -35.18697 -58.35369 18683 ft 384 kts 197°
2026-05-07 00:41 -35.21351 -58.35882 19765 ft 389 kts 197°
2026-05-07 00:41 -35.24043 -58.36407 20825 ft 394 kts 197°
2026-05-07 00:42 -35.26760 -58.36944 21864 ft 399 kts 197°
2026-05-07 00:42 -35.29518 -58.37485 22867 ft 404 kts 197°
2026-05-07 00:42 -35.32312 -58.38032 23723 ft 409 kts 197°
2026-05-07 00:42 -35.35134 -58.38585 24529 ft 413 kts 197°
2026-05-07 00:43 -35.37981 -58.39148 25385 ft 415 kts 196°
2026-05-07 00:43 -35.40842 -58.39695 26242 ft 418 kts 194°
2026-05-07 00:43 -35.43784 -58.39710 27065 ft 431 kts 178°
2026-05-07 00:43 -35.46760 -58.39133 27962 ft 432 kts 176°
2026-05-07 00:44 -35.49720 -58.38540 28871 ft 432 kts 176°
2026-05-07 00:44 -35.52685 -58.37888 29779 ft 432 kts 174°
2026-05-07 00:44 -35.55637 -58.37192 30551 ft 431 kts 174°
2026-05-07 00:44 -35.58575 -58.36531 31322 ft 429 kts 174°
2026-05-07 00:45 -35.61518 -58.35894 32059 ft 428 kts 174°
2026-05-07 00:45 -35.64449 -58.35243 32633 ft 432 kts 173°
2026-05-07 00:45 -35.67467 -58.34566 32649 ft 450 kts 173°
2026-05-07 00:45 -35.70609 -58.33862 32657 ft 468 kts 173°
2026-05-07 00:46 -35.73832 -58.33142 32666 ft 484 kts 173°
2026-05-07 00:46 -35.77206 -58.32387 32668 ft 501 kts 173°
2026-05-07 00:46 -35.80689 -58.31604 32666 ft 517 kts 173°
2026-05-07 00:46 -35.84274 -58.30804 32673 ft 528 kts 173°
2026-05-07 00:47 -35.91522 -58.29182 32662 ft 525 kts 173°
2026-05-07 00:47 -35.98692 -58.27559 32669 ft 525 kts 173°
2026-05-07 00:48 -36.05912 -58.25924 32668 ft 527 kts 173°
2026-05-07 00:48 -36.13115 -58.24280 32666 ft 527 kts 173°
2026-05-07 00:49 -36.20347 -58.22626 32666 ft 532 kts 172°
2026-05-07 00:49 -36.27623 -58.20949 32666 ft 531 kts 172°
2026-05-07 00:50 -36.34879 -58.19284 32648 ft 525 kts 172°
2026-05-07 00:50 -36.38405 -58.18485 32906 ft 515 kts 172°
2026-05-07 00:50 -36.41981 -58.17707 32804 ft 525 kts 172°
2026-05-07 00:51 -36.49171 -58.16129 32656 ft 527 kts 172°
2026-05-07 00:51 -36.56399 -58.14506 32477 ft 527 kts 172°
2026-05-07 00:52 -36.59973 -58.13691 32242 ft 528 kts 171°
2026-05-07 00:52 -36.63579 -58.12844 31995 ft 527 kts 171°
2026-05-07 00:52 -36.67177 -58.11990 31749 ft 526 kts 171°
2026-05-07 00:52 -36.70775 -58.11130 31515 ft 527 kts 171°
2026-05-07 00:53 -36.74384 -58.10264 31290 ft 527 kts 171°
2026-05-07 00:53 -36.77983 -58.09396 31082 ft 530 kts 171°
2026-05-07 00:53 -36.81590 -58.08524 30869 ft 524 kts 171°
2026-05-07 00:53 -36.85166 -58.07652 30651 ft 521 kts 171°
2026-05-07 00:54 -36.88720 -58.06782 30435 ft 520 kts 171°
2026-05-07 00:54 -36.92272 -58.05907 30230 ft 520 kts 171°
2026-05-07 00:54 -36.95825 -58.05029 29946 ft 521 kts 171°
2026-05-07 00:54 -36.99431 -58.04135 28767 ft 528 kts 171°
2026-05-07 00:55 -37.02970 -58.03249 28268 ft 511 kts 172°
2026-05-07 00:55 -37.06423 -58.02375 27771 ft 503 kts 172°
2026-05-07 00:55 -37.09806 -58.01513 27287 ft 503 kts 172°
2026-05-07 00:55 -37.13235 -58.00635 26911 ft 500 kts 172°
2026-05-07 00:56 -37.16634 -57.99759 26625 ft 501 kts 172°
2026-05-07 00:56 -37.20047 -57.98877 26320 ft 500 kts 172°
2026-05-07 00:56 -37.23445 -57.97993 26022 ft 498 kts 172°
2026-05-07 00:56 -37.26828 -57.97108 25724 ft 496 kts 172°
2026-05-07 00:57 -37.30197 -57.96228 25433 ft 493 kts 172°
2026-05-07 00:57 -37.33517 -57.95366 25136 ft 488 kts 172°
2026-05-07 00:57 -37.36873 -57.94497 24843 ft 491 kts 172°
2026-05-07 00:57 -37.40215 -57.93628 24376 ft 487 kts 172°
2026-05-07 00:58 -37.43520 -57.92762 23919 ft 483 kts 172°
2026-05-07 00:58 -37.46801 -57.91891 23441 ft 478 kts 172°
2026-05-07 00:58 -37.50040 -57.91022 22536 ft 468 kts 172°
2026-05-07 00:58 -37.53088 -57.90179 21388 ft 436 kts 172°
2026-05-07 00:59 -37.58814 -57.89451 19186 ft 394 kts 197°
2026-05-07 00:59 -37.61265 -57.90581 17802 ft 355 kts 218°
2026-05-07 00:59 -37.63173 -57.92302 16272 ft 323 kts 227°
2026-05-07 01:00 -37.64817 -57.94122 14840 ft 308 kts 229°
2026-05-07 01:00 -37.66345 -57.95947 13454 ft 298 kts 230°
2026-05-07 01:00 -37.67798 -57.97764 11946 ft 290 kts 231°
2026-05-07 01:00 -37.69201 -57.99555 10503 ft 284 kts 231°
2026-05-07 01:01 -37.70567 -58.01323 8910 ft 279 kts 231°
2026-05-07 01:01 -37.71882 -58.03045 7241 ft 272 kts 231°
2026-05-07 01:01 -37.73173 -58.04765 5603 ft 266 kts 231°
2026-05-07 01:01 -37.74424 -58.06461 4213 ft 258 kts 231°
2026-05-07 01:02 -37.75666 -58.08185 3468 ft 271 kts 231°
2026-05-07 01:02 -37.76936 -58.09972 2998 ft 269 kts 231°
2026-05-07 01:02 -37.78153 -58.11702 2989 ft 261 kts 232°
2026-05-07 01:02 -37.79365 -58.13427 2986 ft 262 kts 232°
2026-05-07 01:03 -37.80578 -58.15161 2993 ft 264 kts 231°
2026-05-07 01:03 -37.81917 -58.16764 2999 ft 267 kts 227°
2026-05-07 01:03 -37.83177 -58.18474 2999 ft 268 kts 233°
2026-05-07 01:03 -37.84549 -58.20103 2990 ft 273 kts 220°
2026-05-07 01:04 -37.86115 -58.21423 2984 ft 272 kts 207°
2026-05-07 01:04 -37.88001 -58.21776 2980 ft 281 kts 175°
2026-05-07 01:04 -37.89787 -58.20911 2979 ft 282 kts 144°
2026-05-07 01:04 -37.91033 -58.19036 2979 ft 281 kts 113°
2026-05-07 01:05 -37.91394 -58.16662 2977 ft 273 kts 82°
2026-05-07 01:05 -37.90823 -58.14435 2976 ft 264 kts 55°
2026-05-07 01:05 -37.89605 -58.12756 2984 ft 261 kts 41°
2026-05-07 01:05 -37.88564 -58.10851 2985 ft 266 kts 58°
2026-05-07 01:06 -37.87718 -58.08769 2990 ft 267 kts 59°
2026-05-07 01:06 -37.86874 -58.06680 2995 ft 267 kts 59°
2026-05-07 01:06 -37.86035 -58.04594 2974 ft 264 kts 60°
2026-05-07 01:06 -37.85241 -58.02514 2991 ft 265 kts 59°
2026-05-07 01:07 -37.84364 -58.00433 2989 ft 267 kts 58°
2026-05-07 01:07 -37.83506 -57.98356 2992 ft 267 kts 58°
2026-05-07 01:07 -37.82657 -57.96279 2992 ft 267 kts 58°
2026-05-07 01:07 -37.81803 -57.94194 2993 ft 266 kts 58°
2026-05-07 01:08 -37.80956 -57.92120 2994 ft 265 kts 58°
2026-05-07 01:08 -37.80099 -57.90067 2992 ft 263 kts 58°
2026-05-07 01:08 -37.79247 -57.88015 2991 ft 264 kts 58°
2026-05-07 01:08 -37.78642 -57.85812 2976 ft 272 kts 81°
2026-05-07 01:09 -37.78980 -57.83457 2977 ft 279 kts 112°
2026-05-07 01:09 -37.80213 -57.81558 2979 ft 282 kts 139°
2026-05-07 01:09 -37.81676 -57.79989 2960 ft 279 kts 135°
2026-05-07 01:09 -37.82914 -57.78099 2886 ft 280 kts 122°
2026-05-07 01:10 -37.83930 -57.76011 2751 ft 278 kts 119°
2026-05-07 01:10 -37.84966 -57.73932 2587 ft 276 kts 120°
2026-05-07 01:10 -37.85969 -57.72091 2418 ft 240 kts 122°
2026-05-07 01:10 -37.86874 -57.70251 2287 ft 238 kts 116°
2026-05-07 01:11 -37.87663 -57.68585 2283 ft 213 kts 118°
2026-05-07 01:11 -37.88412 -57.67134 2283 ft 186 kts 120°
2026-05-07 01:11 -37.89130 -57.65800 2285 ft 182 kts 119°
2026-05-07 01:11 -37.89818 -57.64421 1814 ft 186 kts 117°
2026-05-07 01:12 -37.90416 -57.63160 1503 ft 146 kts 113°
2026-05-07 01:12 -37.90883 -57.62168 1062 ft 133 kts 119°
2026-05-07 01:12 -37.91423 -57.61149 667 ft 136 kts 126°
2026-05-07 01:12 -37.91933 -57.60236 479 ft 122 kts 121°
2026-05-07 01:13 -37.92354 -57.59366 333 ft 111 kts 124°
2026-05-07 01:13 -37.92792 -57.58562 144 ft 112 kts 126°
2026-05-07 01:13 -37.93189 -57.57795 45 ft 86 kts 124°
2026-05-07 01:13 -37.93399 -57.57373 43 ft 23 kts 124°
2026-05-07 01:14 -37.93453 -57.57305 45 ft 10 kts 128°
2026-05-07 01:14 -37.93489 -57.57215 45 ft 15 kts 114°
2026-05-07 01:14 -37.93553 -57.57065 47 ft 25 kts 122°
2026-05-07 01:14 -37.93664 -57.56851 47 ft 39 kts 123°
2026-05-07 01:15 -37.93850 -57.56491 46 ft 46 kts 121°
2026-05-07 01:15 -37.93963 -57.56317 47 ft 12 kts 191°
2026-05-07 01:15 -37.94011 -57.56403 48 ft 13 kts 241°
2026-05-07 01:15 -37.94036 -57.56517 48 ft 15 kts 304°
2026-05-07 01:16 -37.93976 -57.56638 48 ft 18 kts 294°
2026-05-07 01:16 -37.93909 -57.56786 46 ft 23 kts 304°
2026-05-07 01:16 -37.93810 -57.57003 46 ft 34 kts 298°
2026-05-07 01:16 -37.93694 -57.57272 46 ft 30 kts 300°
2026-05-07 01:17 -37.93623 -57.57429 45 ft 32 kts 299°
2026-05-07 01:17 -37.93514 -57.57679 48 ft 33 kts 299°
2026-05-07 01:17 -37.93402 -57.57930 48 ft 26 kts 299°
2026-05-07 01:17 -37.93378 -57.58031 48 ft 8 kts 204°
2026-05-07 01:18 -37.93423 -57.57997 48 ft 9 kts 120°
2026-05-07 01:18 -37.93428 -57.57957 48 ft 1 kts 25°
2026-05-07 01:18 -37.93423 -57.57962 43 ft 1 kts 311°
2026-05-07 01:18 -37.93420 -57.57968 44 ft 0 kts 302°